User: anonymous   Login
Location: Unspecified
(43.4680°N, 87.1740°E)
Time: 01:22:47
(UTC+00:00)
Language:

BREEZE-M DEB (TANK) - Orbit

View from above orbital plane
View from above orbital plane
View from above satellite
View from above satellite

Ground track
Ground track

The orbit data is extracted from the following two-line orbital elements,

1 37871U 11064E   21172.93569395  .00001564  00000-0  28840-3 0  9991
2 37871  52.4927  95.9690 5805902 131.3303 295.6228  4.33625152151392
Epoch (UTC): 21 June 2021 22:27:23
Eccentricity: 0.5805902
inclination: 52.4927°
perigee height: 284 km
apogee height: 18729 km
right ascension of ascending node: 95.9690°
argument of perigee: 131.3303°
revolutions per day: 4.33625152
mean anomaly at epoch: 295.6228°
orbit number at epoch: 15139

The dashed part of the orbit path shows where the satellite is in the earth's shadow,  

DLR